Wind_Speed
32 36 35 33 35 33 26 22 19 20 22 23 23 24 25 24 23 22 22 21 22 23 21 22 21 22 22 23 21 21 21 22
34 35 38 36 36 39 33 30 25 24 25 23 21 19 24 27 27 26 26 26 25 26 24 24 26 25 24 25 26 25 24 23
35 36 40 40 40 41 41 33 33 29 26 24 24 25 27 28 29 30 30 31 29 29 29 28 27 28 27 28 28 27 26 26
36 37 41 44 42 43 46 41 36 35 31 30 29 31 33 33 32 33 33 33 33 31 31 32 33 33 32 31 31 30 28 27
37 40 40 43 43 44 43 46 41 36 36 36 34 33 33 32 32 34 35 36 36 35 35 35 36 37 37 35 34 34 32 31
45 35 36 38 36 39 40 45 48 42 38 38 38 39 37 36 39 38 39 41 40 38 38 36 39 41 40 39 37 37 36 34
41 45 41 38 32 38 40 44 46 47 45 44 44 44 41 42 43 42 42 42 42 41 40 39 39 39 41 40 38 38 36 36
39 44 50 44 49 38 34 37 40 42 46 53 52 51 49 47 47 44 42 44 43 39 39 40 38 36 36 37 36 37 36 36
34 38 39 37 42 50 48 40 44 47 53 54 57 57 57 53 48 45 44 45 44 40 40 38 38 38 37 35 35 34 36 37
20 28 42 46 38 39 41 46 55 57 57 55 53 52 55 54 50 44 45 47 46 44 41 37 36 39 41 40 39 38 38 37
22 22 20 29 27 41 45 40 42 51 55 58 58 55 52 52 48 46 47 49 48 46 44 41 39 39 43 45 45 43 43 39
27 30 28 23 27 28 31 47 48 51 52 48 49 50 48 46 46 44 45 45 46 47 48 45 42 44 41 47 47 48 47 42
18 19 25 25 20 14 17 17 25 34 38 39 42 41 40 41 45 45 46 47 49 49 49 47 46 43 42 45 49 48 46 43
18 25 21 17 20 18 22 23 22 27 34 35 37 39 39 38 41 45 49 51 51 51 51 54 49 47 45 43 49 48 44 42
22 20 24 31 21 24 26 28 24 25 27 27 32 37 40 44 45 45 48 51 53 53 53 53 54 51 49 45 49 46 43 42
27 20 17 22 31 34 31 32 33 31 29 31 31 32 33 37 43 47 50 53 55 56 56 57 58 59 57 50 50 46 44 42
31 35 31 29 30 28 28 42 43 43 36 35 35 36 36 32 35 42 46 48 50 53 56 59 59 60 60 50 48 44 44 40
23 28 28 27 21 27 41 38 41 48 53 45 41 43 41 38 35 33 39 49 50 49 52 53 53 55 55 48 44 44 42 40
32 27 25 27 29 31 32 40 47 52 47 45 45 48 47 45 42 42 36 34 42 51 51 49 47 49 51 43 43 42 41 41
Wind_Direction
230 219 225 213 228 233 226 225 217 213 216 221 227 232 235 232 237 238 243 239 243 246 242 248 250 252 256 263 265 267 272 276
227 219 223 219 222 237 232 224 228 224 222 226 234 248 245 241 240 244 246 248 246 250 254 252 259 262 263 264 268 269 272 275
224 224 221 226 220 231 241 230 228 235 235 240 241 243 246 247 245 246 249 252 251 251 257 259 260 264 265 267 269 272 274 276
228 224 226 226 230 229 236 239 231 234 238 238 240 241 244 244 247 251 255 256 257 257 257 259 261 262 264 265 266 267 271 272
223 231 227 229 233 235 233 243 242 237 237 243 247 253 257 264 267 270 262 260 260 261 261 261 262 263 263 264 265 267 268 272
224 223 223 229 232 230 229 235 249 246 240 244 249 253 259 264 264 266 263 258 258 259 260 262 262 262 266 265 264 264 268 270
231 227 224 218 230 235 244 252 248 253 255 250 249 253 256 261 265 268 262 259 257 258 260 260 264 261 263 266 262 261 263 268
239 228 229 224 227 228 241 242 246 248 256 260 259 258 256 258 265 266 261 255 254 257 259 259 260 265 265 261 258 258 262 267
226 223 224 225 235 235 227 243 249 247 248 253 259 263 265 261 259 260 259 253 253 255 256 257 256 258 260 258 257 259 263 270
227 232 232 229 230 229 235 238 244 248 248 253 254 257 259 258 257 257 253 253 252 252 253 255 257 258 256 258 260 263 266 272
243 241 250 263 243 237 231 231 233 241 245 248 252 251 254 258 254 251 250 250 249 252 256 255 258 263 261 257 258 260 266 272
245 239 234 224 233 242 245 238 237 240 248 250 248 245 247 253 250 245 245 244 244 252 258 258 259 264 274 256 255 257 262 268
225 217 222 227 228 234 258 271 267 248 240 248 250 250 252 251 243 241 239 241 245 253 257 254 258 268 274 259 251 255 259 263
254 253 253 261 237 232 223 227 235 248 253 246 248 250 253 253 249 244 241 242 246 249 252 258 263 266 270 268 250 253 256 258
246 250 256 254 248 243 237 232 229 241 249 248 251 254 251 246 249 251 251 249 250 252 253 257 263 266 269 269 252 253 253 253
255 240 262 267 254 251 249 249 247 247 252 253 249 251 254 257 256 252 251 253 254 255 257 259 262 265 267 268 255 250 249 249
280 270 269 266 267 270 283 264 265 266 258 257 257 253 256 261 260 259 260 258 257 258 258 258 259 261 262 262 246 244 244 245
280 271 264 260 258 259 259 267 272 266 260 260 265 262 260 262 265 271 265 260 258 258 259 260 259 258 258 252 237 237 240 240
278 271 270 268 252 254 259 258 261 267 271 274 274 267 265 262 264 270 277 272 261 254 255 257 253 251 253 237 230 234 236 238
Height
3137 3143 3143 3146 3145 3146 3151 3153 3156 3158 3160 3162 3164 3166 3168 3170 3172 3175 3177 3179 3181 3182 3183 3184 3186 3187 3188 3189 3190 3191 3192 3193
3132 3137 3139 3141 3142 3139 3144 3148 3151 3153 3154 3156 3159 3161 3163 3166 3168 3171 3173 3175 3177 3178 3179 3181 3181 3182 3185 3185 3185 3186 3188 3189
3126 3129 3133 3134 3137 3135 3136 3143 3145 3147 3150 3153 3155 3158 3160 3162 3164 3166 3167 3169 3172 3174 3175 3176 3177 3178 3179 3180 3181 3182 3182 3183
3120 3121 3124 3127 3130 3132 3130 3134 3139 3141 3145 3147 3150 3152 3152 3154 3156 3159 3161 3163 3165 3168 3170 3170 3171 3172 3173 3175 3175 3176 3178 3179
3111 3115 3116 3118 3121 3126 3126 3127 3130 3136 3139 3140 3142 3144 3145 3149 3151 3153 3156 3157 3158 3160 3163 3164 3165 3165 3166 3169 3171 3170 3171 3172
3102 3106 3111 3111 3114 3117 3121 3123 3121 3126 3131 3133 3135 3136 3139 3142 3143 3145 3147 3149 3151 3153 3155 3157 3158 3159 3159 3162 3163 3165 3165 3166
3093 3096 3101 3106 3108 3109 3113 3116 3118 3114 3118 3124 3126 3128 3132 3133 3134 3136 3138 3140 3142 3145 3148 3149 3150 3151 3152 3154 3156 3156 3159 3159
3084 3088 3090 3094 3098 3102 3104 3106 3109 3112 3110 3108 3114 3118 3122 3125 3126 3127 3129 3130 3133 3137 3139 3141 3143 3144 3146 3146 3147 3149 3151 3152
3076 3080 3083 3085 3091 3095 3097 3097 3098 3101 3104 3105 3102 3106 3108 3113 3117 3118 3118 3120 3124 3129 3131 3133 3135 3137 3138 3139 3140 3142 3143 3144
3068 3070 3073 3077 3079 3082 3086 3088 3089 3089 3093 3095 3098 3098 3096 3101 3106 3110 3110 3111 3114 3119 3122 3125 3127 3129 3131 3132 3133 3134 3135 3136
3061 3067 3070 3070 3072 3073 3076 3076 3077 3078 3080 3083 3085 3088 3089 3090 3096 3098 3100 3103 3106 3108 3112 3116 3119 3120 3122 3123 3125 3126 3127 3128
3054 3057 3061 3064 3062 3062 3064 3065 3066 3067 3069 3071 3072 3076 3079 3080 3083 3088 3090 3095 3098 3099 3101 3106 3109 3111 3112 3112 3115 3117 3118 3120
3047 3048 3051 3053 3053 3055 3057 3059 3057 3056 3057 3060 3062 3065 3068 3070 3072 3077 3081 3085 3088 3091 3091 3093 3098 3100 3101 3101 3104 3106 3109 3110
3039 3044 3045 3043 3046 3047 3047 3048 3048 3048 3047 3051 3054 3057 3059 3062 3064 3067 3071 3074 3076 3079 3081 3081 3085 3089 3090 3091 3093 3096 3100 3101
3032 3035 3036 3037 3038 3037 3039 3039 3039 3039 3041 3043 3046 3047 3049 3052 3054 3057 3060 3063 3066 3068 3070 3073 3073 3076 3078 3080 3083 3086 3090 3091
3027 3027 3027 3027 3030 3032 3032 3032 3031 3032 3033 3035 3038 3038 3040 3041 3043 3045 3047 3049 3052 3056 3058 3059 3061 3062 3064 3070 3072 3075 3079 3081
3020 3020 3021 3022 3023 3024 3025 3025 3024 3024 3025 3027 3029 3030 3031 3033 3033 3034 3035 3037 3038 3041 3043 3045 3047 3049 3051 3058 3061 3063 3067 3070
3012 3010 3009 3011 3011 3014 3016 3015 3013 3012 3012 3017 3018 3020 3021 3023 3023 3023 3023 3024 3026 3027 3029 3031 3033 3034 3039 3045 3050 3053 3058 3060
3000 3000 3003 3002 3004 3005 3006 3006 3004 3001 3003 3005 3006 3008 3010 3012 3014 3014 3014 3012 3012 3012 3015 3018 3020 3022 3026 3034 3039 3045 3049 3051